RH
12 11 11 11 11 12 18 29 50 66 72 68 71 76 72 68 68 74 86 90 95 90 87 83 85 88 92 97 96 98 100 99
13 12 12 14 15 17 17 21 39 56 68 76 74 70 74 70 71 72 84 92 96 91 88 87 83 88 94 92 100 99 100 100
14 14 16 17 18 22 22 22 22 40 59 64 67 69 72 73 75 74 81 88 94 93 96 84 79 84 94 97 100 100 100 100
15 16 22 21 24 26 27 27 27 29 29 50 57 76 86 86 82 73 79 81 82 86 93 86 80 86 90 98 100 100 100 100
12 17 28 24 25 27 32 35 35 33 33 39 66 88 89 90 92 87 82 80 81 84 84 90 98 87 97 97 97 99 99 99
14 22 22 22 24 27 33 39 43 41 39 43 71 82 79 82 90 91 84 81 83 85 85 95 100 100 97 99 99 100 99 96
23 22 21 21 22 30 34 36 37 42 44 44 66 81 80 80 85 90 90 90 88 85 84 88 99 100 100 99 100 100 99 97
24 23 22 28 31 33 36 37 39 40 45 48 57 74 84 79 75 82 83 93 94 93 96 97 99 99 98 99 100 100 100 97
26 28 36 38 40 43 46 48 48 44 50 51 54 65 86 79 76 71 83 87 94 92 100 100 96 99 99 100 100 100 100 100
30 33 39 42 43 46 51 53 54 54 56 59 61 68 81 80 76 74 78 76 83 88 97 100 100 99 100 100 100 100 100 100
32 37 42 41 44 49 54 56 59 65 75 72 70 73 74 84 84 73 70 73 76 89 98 100 97 96 100 99 99 100 100 100
44 42 42 46 49 51 56 62 70 77 83 89 74 80 79 87 86 77 69 72 73 95 99 99 100 94 100 99 99 100 100 100
47 48 49 51 53 55 60 67 74 85 90 86 81 83 80 89 87 78 72 73 77 85 92 93 95 100 99 100 100 100 100 100
50 50 53 56 59 61 67 72 80 90 95 98 91 92 83 93 94 80 75 76 78 79 94 99 96 99 99 100 99 99 100 100
56 58 60 62 66 70 76 80 84 92 96 100 98 94 92 94 96 82 79 76 76 76 82 93 100 99 99 100 100 100 100 100
60 65 68 68 73 80 83 88 91 95 100 100 100 95 98 97 94 84 78 85 79 82 87 90 91 98 99 99 100 100 100 100
67 71 73 75 82 89 91 93 96 99 100 100 99 100 100 100 92 87 83 87 86 85 88 89 94 96 96 97 99 99 100 100
76 80 80 86 92 96 96 96 97 99 100 100 100 100 100 100 92 93 92 89 89 87 89 89 92 88 93 96 99 98 99 99
83 83 87 93 97 99 99 98 98 99 100 100 100 100 100 100 97 96 94 90 88 92 88 84 89 88 94 99 98 100 97 100
Wind_Speed
26 29 27 23 24 21 20 22 31 29 25 28 22 25 27 23 23 22 23 26 28 31 25 17 21 19 21 20 22 22 23 27
13 13 16 12 8 4 2 7 19 27 24 23 25 24 25 26 24 23 23 26 28 28 27 22 20 21 23 23 20 21 23 25
9 15 17 9 3 1 5 8 10 15 22 25 24 26 24 24 24 22 26 29 27 26 26 28 24 25 23 23 26 20 20 28
12 13 16 13 6 3 8 11 15 18 23 24 23 16 17 22 29 29 26 28 29 27 27 27 27 27 27 26 27 26 18 24
10 8 10 12 7 5 1 8 12 14 19 23 26 21 17 21 23 27 24 25 26 27 25 29 27 28 28 27 27 27 24 20
6 9 10 11 9 9 3 5 12 14 15 25 26 22 21 20 22 24 34 29 30 28 27 28 26 28 28 28 26 28 30 25
8 9 8 2 5 6 1 8 15 12 15 16 24 25 23 20 23 27 28 26 31 29 29 29 27 29 29 27 27 31 31 28
6 6 4 11 15 16 12 13 17 20 16 19 19 22 25 25 26 27 26 26 27 29 30 28 29 29 27 28 31 32 33 33
4 8 10 15 18 22 23 24 26 20 28 21 23 17 22 26 29 25 29 28 26 26 29 29 29 28 28 30 32 32 33 34
9 10 13 14 14 16 19 20 25 23 28 31 24 25 24 24 26 23 26 23 22 27 29 27 30 31 27 27 30 31 31 32
7 10 10 8 10 15 19 23 23 25 30 34 24 27 26 29 24 25 24 25 23 27 28 29 30 28 28 26 26 29 30 30
12 10 14 17 16 16 20 22 23 27 30 38 25 23 23 25 24 24 24 23 21 24 26 27 27 26 28 25 26 28 31 30
12 11 14 17 20 21 24 26 25 28 32 27 19 22 22 23 25 24 22 22 20 23 25 26 28 30 29 28 28 28 30 29
14 13 13 17 21 22 25 29 29 30 29 26 16 21 24 23 17 25 20 20 22 22 24 25 25 26 26 27 29 31 30 31
15 13 13 18 21 23 26 30 30 30 29 24 19 22 24 23 19 24 23 21 22 20 20 22 24 24 23 27 28 27 27 28
14 14 14 19 21 24 27 29 31 29 31 26 19 22 23 22 29 25 25 21 23 20 20 20 18 18 21 23 26 27 26 25
14 15 16 18 23 25 28 29 29 30 30 23 18 20 21 22 27 24 27 23 23 20 19 20 18 16 18 19 21 20 21 22
12 13 14 19 21 25 26 28 27 27 25 15 20 21 19 18 25 25 22 23 22 21 19 19 18 14 16 18 17 17 19 21
11 12 17 19 22 25 27 25 22 24 27 25 5 19 19 19 23 22 23 24 21 21 21 18 16 12 13 18 17 13 13 16
Wind_Direction
222 223 229 224 223 233 206 190 182 190 196 203 218 209 209 214 214 206 200 211 210 209 207 207 211 209 211 205 204 211 200 201
200 190 224 236 182 102 50 172 185 185 185 192 212 214 203 208 208 214 211 212 212 210 212 205 207 205 201 204 203 200 196 210
203 201 146 145 152 162 273 267 244 199 197 203 213 218 210 207 205 215 217 208 209 207 204 205 209 209 205 207 208 190 202 199
225 216 134 134 165 210 254 258 261 232 223 213 209 197 194 205 212 220 218 208 202 210 207 210 212 213 213 209 203 199 187 194
256 157 125 145 179 192 305 289 282 267 229 216 193 183 197 211 211 212 225 209 211 211 208 211 210 214 213 214 211 210 192 188
171 112 127 153 172 167 142 265 274 275 270 216 199 198 213 211 205 207 219 222 217 210 208 203 203 207 216 214 210 206 199 190
88 96 98 109 170 121 290 300 294 272 269 257 204 203 205 206 205 203 207 213 208 209 209 212 213 209 211 215 214 202 197 193
99 106 125 36 17 12 13 339 318 309 268 254 237 212 203 211 224 204 197 197 202 203 203 205 203 211 211 212 206 204 200 196
163 81 56 33 15 0 355 340 322 299 306 268 234 238 206 219 234 213 185 187 198 204 199 201 207 206 207 208 204 204 203 204
72 77 63 41 6 353 341 327 314 304 295 297 229 215 221 233 235 234 177 184 198 206 204 197 198 201 207 209 204 205 203 201
71 76 65 37 1 343 341 330 317 306 302 288 236 211 219 231 233 213 196 189 196 200 200 194 204 207 202 204 206 204 201 197
52 37 21 10 4 346 334 335 323 310 302 298 217 199 210 225 232 220 186 182 190 181 192 198 195 202 197 204 205 199 197 194
35 25 15 360 346 344 335 332 324 316 310 308 181 200 207 220 223 207 185 174 190 196 200 203 204 199 200 198 194 195 193 193
17 10 8 358 340 338 335 327 326 317 311 297 206 198 209 214 221 185 173 176 195 194 193 189 197 199 201 203 202 200 197 196
7 360 353 345 339 340 329 325 320 314 307 291 204 204 212 214 200 175 174 184 190 187 188 192 188 194 201 205 203 201 200 201
358 353 349 342 338 334 328 321 317 318 313 305 202 212 214 211 177 168 178 184 186 185 178 184 187 186 192 200 205 204 205 206
1 348 345 338 338 331 325 322 321 321 306 295 206 205 201 175 168 170 172 184 177 180 175 176 169 171 189 196 202 201 208 206
355 350 343 337 336 330 327 326 326 333 339 276 194 194 187 174 167 166 170 174 176 174 173 168 164 163 179 180 182 192 202 204
356 354 349 341 339 340 335 335 341 357 0 360 340 185 190 175 165 156 169 180 176 169 171 169 163 156 177 179 176 178 190 204